Temp
20 20 22 23 23 24 25 25 26 26 27 26 27 26 27 28 27 27 27 28 27 27 28 22 20 19 18 18 18 18 18 18 18 17 17 17 17 17 16 16 16 15 15 15
20 21 24 24 24 22 23 24 25 26 26 25 26 26 27 27 27 28 28 28 28 28 26 21 18 18 18 18 18 17 18 19 18 18 17 18 17 17 16 16 15 15 15 15
22 23 24 23 23 22 23 24 24 25 25 25 25 25 26 28 27 28 29 28 27 27 26 20 19 18 18 18 17 18 18 18 18 18 18 18 17 16 16 16 15 15 15 15
21 24 23 22 22 23 22 24 25 24 23 24 25 24 26 27 27 28 28 28 28 27 22 20 19 18 18 18 18 18 18 18 17 18 17 17 18 18 16 15 15 15 15 14
20 21 22 22 23 23 23 25 24 23 22 22 24 23 25 26 26 28 29 29 28 24 22 20 20 19 19 18 18 18 17 17 17 18 17 17 17 16 15 15 15 15 15 15
22 23 23 24 24 24 24 24 23 23 23 22 24 24 25 27 27 28 29 30 24 22 20 20 19 19 19 19 18 18 17 17 17 17 17 17 16 16 16 16 16 15 14 14
20 21 23 24 23 24 24 23 21 21 22 22 25 24 24 27 28 27 29 29 24 21 20 20 19 20 19 19 18 18 18 17 17 17 17 16 16 16 16 16 15 15 15 15
19 19 22 24 23 23 23 24 23 21 22 24 24 23 25 27 28 28 28 27 23 21 21 20 21 21 20 19 18 18 18 18 17 17 17 16 16 16 16 16 15 15 15 15
20 21 23 24 24 25 23 23 26 24 22 24 25 23 25 27 27 26 27 26 23 21 20 21 21 20 20 19 19 18 18 18 17 17 17 16 16 16 16 15 15 15 15 15
18 20 23 23 25 25 24 25 22 24 23 22 24 24 27 28 28 28 27 25 22 21 20 21 21 20 20 19 19 18 18 18 18 17 17 17 16 16 16 15 15 15 15 15
16 18 22 24 23 24 23 23 24 25 24 24 24 26 27 29 28 29 29 25 22 21 21 21 21 20 20 19 19 18 18 18 18 17 17 17 17 16 16 15 15 15 15 15
14 16 20 23 24 25 24 24 24 24 22 25 24 26 26 27 27 27 26 23 22 22 22 22 22 21 20 19 19 18 18 18 18 18 17 17 16 16 16 15 15 15 15 15
11 16 20 21 22 24 24 24 24 24 24 23 25 26 26 26 27 26 26 23 21 21 21 22 22 21 21 20 20 19 18 19 18 18 17 17 16 16 16 15 15 15 15 15
11 13 17 21 22 22 22 24 24 24 24 24 25 27 29 28 28 27 24 23 22 22 21 22 21 22 21 20 20 20 19 18 18 18 17 17 17 16 16 15 15 15 15 15
9 13 14 16 16 17 19 23 24 23 24 24 25 26 28 28 29 27 24 23 22 22 22 22 22 22 21 20 20 20 19 18 18 18 18 17 16 16 16 16 15 15 15 15
12 12 14 17 18 19 19 21 23 24 24 25 25 26 28 28 26 26 24 23 23 23 23 22 22 22 21 21 20 20 19 18 18 18 18 17 17 17 16 16 16 16 15 15
12 12 13 18 17 19 20 22 22 23 25 25 25 26 27 27 28 27 26 24 25 24 23 23 22 22 21 21 20 20 19 18 18 18 18 17 17 17 16 16 16 16 15 15
13 13 13 16 17 19 23 21 24 23 24 25 26 27 28 28 30 30 28 26 26 25 24 23 23 22 21 21 20 20 19 18 18 18 18 18 18 17 17 16 16 15 15 15
13 13 14 15 17 20 21 17 17 23 23 18 22 26 27 28 28 29 27 27 26 25 25 24 23 22 20 20 20 20 19 19 19 19 19 18 18 17 17 17 16 15 15 15
14 14 13 14 16 20 16 17 17 17 22 16 16 17 18 20 26 30 31 27 26 25 25 24 22 22 20 20 20 20 20 19 19 19 19 19 18 18 17 16 16 15 15 15
11 10 11 14 15 17 15 16 17 20 19 16 16 16 17 19 27 23 21 27 26 25 24 23 22 21 20 20 19 20 20 20 20 20 19 18 18 18 17 16 15 15 15 15
12 12 12 13 14 17 15 17 17 16 15 15 16 16 16 17 18 19 21 23 25 24 24 23 22 22 20 19 20 21 20 20 20 19 19 18 18 18 17 16 15 15 15 15
12 12 12 14 16 15 14 15 16 16 15 16 15 16 16 17 18 19 20 22 25 25 24 24 23 21 20 19 20 21 20 20 19 19 19 18 17 17 17 16 16 16 16 17
11 11 12 13 14 14 14 15 15 15 15 16 16 16 17 17 18 19 21 22 25 25 25 24 23 22 20 20 20 21 21 20 20 19 19 18 18 17 17 17 17 17 17 18
9 10 11 12 14 14 14 14 14 14 16 16 17 17 17 18 19 19 20 22 25 25 24 24 24 23 22 20 21 21 20 20 20 19 19 18 18 17 17 17 17 18 17 18
10 11 12 13 13 12 11 13 14 14 15 16 17 17 18 18 18 19 20 23 25 25 24 24 23 23 22 21 21 21 20 20 20 19 18 19 19 18 18 18 16 16 17 18
Height
741 751 733 730 734 740 737 741 741 739 737 744 737 736 730 720 722 720 711 705 700 695 690 693 694 697 699 702 706 713 721 731 736 741 745 749 751 753 753 752 751 751 752 752
742 726 699 720 732 741 743 742 739 735 734 741 734 732 727 720 718 710 705 699 693 689 689 693 696 699 702 705 710 716 723 728 734 738 743 747 749 750 749 748 747 748 748 748
704 674 711 722 724 736 736 735 738 738 736 735 737 731 727 710 710 699 693 691 686 686 685 693 695 700 704 708 713 718 723 728 733 738 742 745 747 747 747 746 745 745 746 745
706 692 704 718 721 726 733 729 734 741 749 748 735 739 725 712 706 694 687 685 681 681 688 691 695 700 705 710 715 720 724 728 733 738 741 744 745 745 745 744 743 743 743 742
693 697 704 710 704 713 717 723 732 739 749 751 743 747 722 713 705 690 680 679 679 683 685 690 694 699 706 712 717 721 725 730 734 737 740 742 743 743 743 742 742 741 740 741
690 685 689 682 699 706 713 722 729 733 738 748 733 741 713 705 694 681 670 670 677 683 686 692 696 700 707 714 718 722 726 730 734 737 739 740 741 741 742 741 741 740 739 740
693 690 680 683 699 703 711 724 745 751 747 732 720 731 703 685 678 677 671 667 676 683 686 692 698 701 708 714 718 722 727 731 734 737 738 739 740 740 740 740 739 738 739 739
692 698 680 672 681 693 700 704 716 739 736 722 714 722 696 673 660 662 662 666 675 682 686 691 697 704 708 714 718 722 726 730 734 736 737 738 739 740 740 739 738 738 737 738
683 676 660 666 669 679 695 704 693 707 719 715 697 702 680 665 662 661 659 666 673 681 685 691 698 704 708 713 718 721 726 730 732 735 736 738 738 739 739 738 738 738 738 739
689 681 660 665 666 668 674 683 713 704 717 724 702 701 682 665 661 655 658 664 673 681 686 691 698 704 709 713 718 722 726 729 732 734 736 737 738 739 738 738 738 738 738 739
698 686 664 658 660 664 678 684 686 687 694 702 705 687 657 651 652 650 650 658 669 678 683 689 696 703 709 713 718 722 726 729 731 734 736 737 738 738 737 738 738 738 738 739
705 696 672 655 649 649 660 669 674 683 704 688 692 682 653 651 652 652 654 662 668 675 680 688 695 702 708 712 717 721 725 728 731 734 736 737 738 738 738 738 738 738 737 740
720 692 672 667 664 654 658 661 669 676 679 690 691 680 651 653 651 651 651 661 671 674 681 688 695 700 706 711 716 720 724 727 730 733 735 736 737 737 738 738 738 738 739 741
722 705 683 658 660 659 663 663 664 672 678 681 678 671 651 650 648 650 655 660 667 674 680 686 693 698 704 708 714 718 722 726 730 733 735 736 737 737 738 739 740 739 740 742
725 706 696 686 683 680 671 658 660 668 670 678 675 670 648 647 645 649 656 661 667 673 678 683 689 695 701 706 712 717 721 725 729 732 734 736 737 737 739 740 741 741 742 743
712 706 699 679 674 674 673 665 656 659 662 665 666 660 646 645 649 649 655 661 664 667 672 679 685 692 697 703 708 714 720 724 728 731 734 736 737 738 739 741 742 743 744 745
709 707 699 672 678 672 669 656 658 658 655 659 666 652 645 646 644 644 649 656 653 658 665 672 679 686 693 699 705 711 717 723 727 730 734 736 738 739 740 742 744 745 745 747
707 705 701 685 678 678 647 647 641 653 651 650 649 647 641 638 631 633 637 643 647 652 659 667 675 682 690 696 703 710 716 721 725 729 733 736 738 740 741 742 744 746 747 748
704 703 696 689 677 661 653 668 671 652 656 673 659 646 642 638 638 630 631 634 640 639 646 656 666 676 685 693 700 707 713 719 724 727 731 734 737 739 742 743 744 746 748 750
699 701 701 693 684 660 678 672 671 670 661 678 676 671 667 659 653 629 621 629 635 642 647 653 663 674 682 689 697 704 710 716 720 724 728 732 735 738 741 743 745 746 749 750
705 715 707 693 688 674 679 669 665 665 672 679 677 673 669 663 635 634 638 629 629 636 642 651 659 667 675 684 693 699 706 711 716 722 727 731 734 737 740 743 745 747 749 752
695 696 699 697 689 678 680 669 673 683 680 678 675 671 667 661 651 645 641 637 636 631 639 648 655 663 672 680 687 694 700 706 713 719 725 729 733 737 740 742 745 748 750 753
696 698 695 689 677 684 686 685 683 681 679 676 674 668 662 655 646 643 638 638 633 636 632 640 648 658 668 675 681 687 694 703 709 715 721 727 732 736 739 742 744 748 751 753
699 703 694 691 687 685 687 685 684 682 677 673 669 663 657 650 642 638 633 632 629 631 635 636 645 653 661 669 675 679 689 698 705 711 717 723 729 734 738 741 744 746 749 752
712 707 700 696 688 684 683 683 682 679 673 668 663 659 653 646 637 634 630 627 623 625 632 632 637 643 651 662 669 677 684 693 700 707 713 720 725 730 735 739 742 745 747 749
708 701 696 691 692 695 691 684 682 678 672 666 659 651 647 643 635 630 625 620 618 619 624 632 634 641 649 657 664 671 678 686 693 702 708 714 720 726 731 735 739 742 745 748
Wind_Speed
20 12 26 30 29 15 17 21 21 14 9 7 13 18 15 20 19 19 19 19 19 19 14 6 4 9 16 20 26 30 29 24 21 14 9 6 9 8 9 10 11 11 10 10
11 28 32 26 19 23 24 22 23 14 12 9 16 22 18 18 21 17 18 20 18 17 10 1 4 8 14 19 22 25 25 26 19 14 9 6 5 6 7 7 7 7 8 8
26 39 23 22 26 25 28 29 23 20 5 9 9 18 20 23 13 16 19 17 16 14 7 4 7 11 15 20 24 24 23 22 17 13 9 6 5 4 3 3 2 3 5 5
22 27 21 23 28 23 27 23 23 19 9 13 2 19 16 21 21 18 18 14 14 9 3 7 10 12 17 21 23 21 20 19 14 12 8 6 4 2 2 3 4 5 4 4
19 17 23 26 28 27 21 14 19 16 7 12 19 13 16 7 17 22 19 14 7 3 5 9 12 16 20 22 21 19 18 15 14 12 7 5 4 2 1 3 4 4 3 3
19 11 25 27 16 22 15 11 11 9 11 17 19 14 21 14 21 17 15 11 2 3 8 9 13 21 23 21 19 18 17 15 13 10 7 5 4 2 1 3 3 2 1 5
17 17 5 14 23 21 20 15 7 8 9 13 11 13 19 10 18 17 16 8 4 7 10 12 15 18 22 21 19 18 16 14 12 10 6 4 3 1 1 3 3 1 2 5
15 11 21 17 16 18 28 23 11 11 9 9 15 10 9 19 26 19 17 7 6 9 11 14 17 17 21 21 19 17 15 14 12 9 6 4 2 0 2 2 1 1 2 6
12 15 14 19 13 24 24 18 18 14 1 3 5 6 12 16 12 12 15 10 9 11 13 16 17 20 21 20 20 17 15 13 11 9 6 3 2 1 0 1 0 1 4 7
7 7 13 16 20 25 19 23 12 10 13 8 5 5 10 9 14 10 9 10 10 12 14 16 17 19 19 20 18 15 14 12 11 8 5 4 2 2 3 1 2 3 5 8
11 7 12 18 20 23 11 22 7 10 6 6 3 5 8 16 15 14 11 11 14 15 17 17 17 19 19 19 17 15 13 11 10 8 6 4 3 3 4 2 2 2 5 8
6 6 5 24 11 19 22 19 21 11 8 8 2 5 1 9 1 3 8 11 14 15 16 17 17 19 19 19 18 15 13 10 9 8 6 5 3 4 4 4 3 3 6 9
7 6 10 9 6 13 27 20 22 6 4 14 10 2 1 2 2 4 7 12 13 15 16 16 16 15 18 19 17 15 13 10 9 7 7 5 4 4 4 5 4 6 8 8
8 4 9 10 8 2 22 24 21 19 12 10 16 11 15 8 6 2 6 13 13 15 16 17 16 16 19 19 18 15 13 11 10 8 8 6 5 4 4 5 5 8 9 10
3 3 4 14 12 7 3 21 24 24 20 15 11 22 22 14 10 0 6 13 15 16 17 18 18 16 17 19 17 15 13 13 11 10 9 7 6 5 6 6 5 8 10 10
1 3 8 8 7 8 8 6 19 23 23 19 11 17 18 11 2 4 10 14 17 17 18 18 18 17 16 20 19 17 15 14 14 11 9 8 8 7 7 7 7 8 10 11
2 2 4 13 4 5 9 14 11 14 21 20 18 16 6 9 9 8 13 16 19 18 19 20 20 18 20 21 21 19 17 16 15 12 11 10 9 8 8 6 7 7 10 10
4 1 2 3 2 9 3 11 13 14 10 23 22 14 16 18 18 8 11 18 18 17 18 18 17 19 23 22 21 19 18 17 16 14 13 12 10 9 9 9 8 6 8 9
14 3 2 2 6 3 5 10 6 5 8 10 6 18 20 14 11 16 12 16 19 21 20 19 26 26 24 24 22 21 19 18 17 16 15 15 12 12 10 9 8 7 8 10
13 9 4 1 4 10 6 14 7 1 8 13 11 9 10 10 11 15 8 16 15 15 15 18 25 25 25 24 24 23 21 19 19 19 17 16 14 14 12 10 9 8 10 13
7 3 9 5 3 2 10 17 2 10 2 15 13 11 11 7 11 12 17 11 16 17 20 26 27 26 27 27 26 25 22 22 21 19 18 17 15 14 13 11 10 12 12 12
5 7 5 4 4 3 18 5 3 6 8 12 13 12 14 15 20 18 16 13 13 20 21 25 23 24 26 28 28 26 25 24 21 20 20 18 17 15 14 13 13 12 13 13
2 1 2 4 1 7 7 7 5 6 10 13 15 15 15 16 18 17 15 13 12 17 19 27 26 25 26 29 30 28 27 24 23 21 22 20 18 16 15 15 15 14 13 13
1 1 3 3 4 8 8 5 9 10 11 14 13 15 14 16 16 15 14 12 11 15 17 26 25 23 25 30 31 32 28 27 25 23 22 21 21 18 16 15 15 15 15 14
3 3 2 4 5 9 4 11 14 17 16 18 17 15 14 14 16 14 13 13 13 14 19 26 24 24 28 31 31 29 29 29 26 24 23 22 21 22 19 18 17 16 16 17
2 4 2 2 4 4 11 14 18 15 17 19 20 21 17 13 15 15 13 12 12 15 22 20 23 23 27 31 30 30 31 32 29 25 24 25 24 23 21 19 15 19 17 19
Wind_Direction
188 198 219 211 214 234 257 238 238 228 226 254 260 276 280 288 292 281 283 281 276 271 297 325 278 202 180 177 172 169 165 171 171 172 184 209 235 241 248 254 257 242 240 249
174 221 222 222 211 222 235 240 238 241 248 240 274 282 288 280 273 277 286 284 277 283 283 329 157 169 174 166 164 159 161 169 172 179 183 192 210 244 259 268 262 242 248 253
195 224 216 213 217 217 225 231 235 244 214 242 281 281 279 277 274 294 284 269 272 269 279 168 142 162 164 161 159 157 162 165 168 176 177 193 235 245 258 273 265 248 276 258
226 226 204 207 219 211 234 228 242 240 234 251 232 281 275 287 286 284 283 281 276 285 192 158 152 158 161 158 155 156 157 161 164 169 167 192 200 202 250 279 266 270 282 262
215 204 199 205 208 201 229 215 222 227 241 275 258 268 280 264 280 277 275 269 277 205 169 154 160 155 159 155 157 155 155 155 158 160 172 177 167 193 269 283 290 274 271 219
228 212 199 212 201 200 201 196 176 197 234 243 245 247 270 254 255 263 266 257 91 106 128 147 150 150 155 157 155 155 156 154 158 165 174 169 172 186 301 339 319 335 241 180
215 221 197 196 205 194 191 191 186 208 211 246 229 220 249 254 249 246 264 262 139 145 144 150 158 157 156 160 159 160 160 159 170 173 169 175 185 205 324 328 349 331 178 173
205 196 211 192 197 188 190 181 197 211 224 228 214 226 251 228 240 236 239 260 154 161 154 157 163 160 160 163 164 163 162 168 179 176 171 167 173 247 290 348 2 65 151 159
219 224 184 186 184 186 199 207 217 230 38 234 204 236 273 246 249 225 230 218 187 170 161 160 164 168 165 167 169 162 167 175 176 176 169 164 150 262 20 30 136 152 129 144
280 233 208 186 189 193 190 182 187 210 218 227 227 233 238 229 237 220 213 201 170 165 161 163 170 170 172 170 166 167 172 171 174 170 169 171 151 131 66 123 131 123 148 149
266 279 177 175 198 186 179 189 197 204 227 209 234 227 220 229 217 214 213 179 164 166 168 166 172 172 174 167 168 171 168 169 168 171 167 175 160 118 79 102 125 110 127 147
303 288 220 203 189 192 199 192 192 199 184 216 241 250 339 247 246 192 148 152 163 165 161 169 171 171 173 172 172 172 173 173 174 170 161 173 144 111 84 110 107 100 121 144
344 235 219 153 179 203 202 200 199 201 171 201 200 216 113 235 207 203 137 143 155 154 160 169 172 176 178 176 177 175 179 176 176 168 169 165 140 119 97 111 102 106 119 127
322 265 258 208 191 230 207 206 199 204 212 190 214 226 258 282 295 152 154 152 158 166 166 171 176 178 183 178 180 177 180 179 176 165 170 164 158 134 114 118 97 119 124 126
27 272 299 285 280 292 299 210 206 209 214 219 202 222 248 270 306 320 168 155 160 168 172 177 178 180 183 177 181 179 180 179 174 165 171 164 158 133 115 117 92 112 121 125
162 329 328 257 232 255 261 237 222 213 211 218 219 240 235 237 202 174 161 177 176 178 176 179 181 183 183 180 182 178 178 180 173 168 172 159 155 142 112 114 110 115 115 126
287 6 324 216 7 297 258 231 211 219 220 218 229 229 250 273 253 208 180 201 186 182 178 182 183 185 184 183 182 179 179 178 173 170 169 162 162 150 136 118 116 120 132 123
253 260 299 287 280 225 92 30 197 206 221 228 240 255 252 255 266 277 203 200 199 180 179 180 182 184 184 181 184 178 176 179 175 173 172 170 166 158 151 135 115 114 131 139
218 236 256 244 224 326 90 27 356 229 186 21 308 253 254 275 294 270 210 202 214 185 181 179 180 180 176 179 181 176 176 180 179 179 178 178 172 164 158 147 127 128 131 132
199 223 265 248 227 211 48 346 330 247 179 7 354 331 320 314 247 258 234 205 201 193 178 171 174 175 176 179 177 176 179 180 186 185 184 182 179 172 166 156 136 131 127 127
174 185 223 225 263 289 349 328 197 186 33 341 336 322 311 284 241 315 317 260 192 182 172 166 169 175 181 175 177 180 181 187 190 185 184 182 183 177 169 156 145 138 135 132
168 169 188 199 228 239 359 11 54 338 328 333 326 317 305 293 289 296 297 300 210 172 167 171 169 175 176 177 178 183 187 190 185 180 182 183 183 178 171 163 150 144 140 139
187 262 159 230 27 349 327 320 326 338 331 330 323 317 310 299 293 293 285 285 220 199 172 174 173 171 177 180 183 184 191 183 181 180 180 182 182 181 177 168 159 154 153 152
141 125 263 274 72 325 328 37 357 345 336 331 325 321 311 303 299 291 284 273 228 196 190 173 171 174 178 184 187 191 182 182 180 180 182 179 179 183 182 180 175 171 172 169
317 328 341 280 308 335 124 344 343 338 339 341 339 334 319 310 306 298 283 258 230 198 191 178 180 182 182 182 189 186 183 180 181 180 180 182 184 184 186 189 188 189 191 187
288 351 311 342 350 302 284 310 319 323 332 331 337 337 337 325 312 305 290 251 223 196 184 193 186 181 180 183 188 186 183 181 177 179 180 184 186 187 190 191 196 198 201 203